Regional Weather Roundup
Issued by NWS

Home | Current Version | Previous Version | Text Only | Print | Product List | Glossary Off
Versions: 1 2 3 4 5 6 7 8 9 10 11 12 13 14 15 16 17 18 19 20 21 22 23 24 25 26 27 28 29 30 31 32 33 34 35 36 37 38 39 40 41 42 43 44 45 46 47 48 49 50

000
ASUS43 KOAX 260002
RWRNE

WEATHER ROUNDUP FOR NEBRASKA
NATIONAL WEATHER SERVICE OMAHA NE
700 PM CDT FRI JUL 25 2014

NOTES: SATELLITE DATA IS BEING USED TO AUGMENT CLOUD COVER ABOVE
       12000 FEET.
       "FAIR" INDICATES FEW OR NO CLOUDS BELOW 12,000 FEET WITH NO
       SIGNIFICANT WEATHER AND/OR OBSTRUCTIONS TO VISIBILITY.

  * THESE STATIONS DO NOT REPORT WEATHER SUCH AS RAIN...SNOW OR FOG.

NEZ001>004-019>022-054>056-260100-
NEBRASKA PANHANDLE

CITY           SKY/WX    TMP DP  RH WIND       PRES   REMARKS
SCOTTSBLUFF    LGT RAIN  81  59  47 NW6       29.98R
6HR MIN TEMP:  80; 6HR MAX TEMP:  89; 6HR PCP: TRACE;

ALLIANCE       MOSUNNY   85  52  32 S13       29.90F
6HR MIN TEMP:  81; 6HR MAX TEMP:  90;

CHADRON        MOSUNNY   87  51  28 S13       29.87R
6HR MIN TEMP:  81; 6HR MAX TEMP:  90;

KIMBALL        PTSUNNY   83  60  45 S16G22    29.99S
SIDNEY         CLOUDY    88  52  29 SW6       29.99S
6HR MIN TEMP:  84; 6HR MAX TEMP:  94;

$$

NEZ057>060-069>072-079>082-260100-
SOUTHWEST NEBRASKA

CITY           SKY/WX    TMP DP  RH WIND       PRES   REMARKS
NORTH PLATTE   SUNNY     89  66  46 E6        29.85F HX  91
6HR MIN TEMP:  86; 6HR MAX TEMP:  95;

IMPERIAL       MOSUNNY   89  64  43 E5        29.90S HX  90
6HR MIN TEMP:  85; 6HR MAX TEMP:  94;

LEXINGTON      MOSUNNY   91  68  47 CALM      29.84S HX  95
MCCOOK         SUNNY     92  65  40 E9        29.85S HX  94
6HR MIN TEMP:  90; 6HR MAX TEMP:  97;

OGALLALA       HAZE      85  61  44 SE5       29.89F VSB 1/2
$$

NEZ005>010-023>029-035>040-094-260100-
NORTH CENTRAL NEBRASKA

CITY           SKY/WX    TMP DP  RH WIND       PRES   REMARKS
VALENTINE      SUNNY     90  58  33 E5        29.84F
6HR MIN TEMP:  83; 6HR MAX TEMP:  92;

AINSWORTH      SUNNY     87  64  45 E5        29.84F
BROKEN BOW     MOSUNNY   90  68  48 CALM      29.85S HX  94
6HR MIN TEMP:  86; 6HR MAX TEMP:  91;

O`NEILL        SUNNY     91  63  40 CALM      29.80S HX  92
ORD            MOSUNNY   86  71  60 SW3       29.80F HX  91
6HR MIN TEMP:  86; 6HR MAX TEMP:  90;

$$

NEZ041-046>049-061>064-073>077-083>087-260100-
SOUTH CENTRAL NEBRASKA

CITY           SKY/WX    TMP DP  RH WIND       PRES   REMARKS
GRAND ISLAND   SUNNY     90  74  59 CALM      29.80S HX  99
6HR MIN TEMP:  90; 6HR MAX TEMP:  96;

AURORA         SUNNY     90  75  62 N3        29.79S HX 100
HASTINGS       SUNNY     90  68  48 N7        29.80F HX  94
6HR MIN TEMP:  89; 6HR MAX TEMP:  93;

HEBRON         SUNNY     92  71  49 N6        29.75F HX  98
HOLDREGE       SUNNY     90  69  50 NE8       29.83S HX  94
KEARNEY *      MOSUNNY   91  68  46 NW7       29.83F HX  95
YORK           MOSUNNY   90  77  66 N5        29.78S HX 102
$$

NEZ011>018-030>034-042>045-260100-
NORTHEAST NEBRASKA

CITY           SKY/WX    TMP DP  RH WIND       PRES   REMARKS
NORFOLK        MOSUNNY   88  72  58 E8        29.76F HX  94
6HR MIN TEMP:  87; 6HR MAX TEMP:  92;

ALBION         MOSUNNY   86  73  64 E3        29.79S HX  93
BLAIR          MOSUNNY   90  75  61 CALM      29.74S HX  99
COLUMBUS *     MOSUNNY   90  73  58 CALM      29.76F HX  98
FREMONT        MOSUNNY   90  76  64 NE7       29.74S HX 101
WAYNE          MOSUNNY   87  75  68 NE6       29.76F HX  96
$$

NEZ050>053-065>068-078-088>093-260100-
SOUTHEAST NEBRASKA

CITY           SKY/WX    TMP DP  RH WIND       PRES   REMARKS
LINCOLN        SUNNY     96  71  44 NW7       29.74F HX 103
6HR MIN TEMP:  94; 6HR MAX TEMP:  99;

OMAHA EPPLEY   PTSUNNY   91  77  63 E8        29.72S HX 104
6HR MIN TEMP:  87; 6HR MAX TEMP:  93;

BEATRICE       SUNNY     92  77  60 NW7       29.74S HX 106
FALLS CITY     SUNNY     99  72  41 SW8       29.71S HX 108
6HR MIN TEMP:  96; 6HR MAX TEMP: 102;

NEBRASKA CITY  SUNNY     94  71  46 W3        29.72F HX 101
PLATTSMOUTH    SUNNY     92  74  54 NW7       29.73S HX 101
$$

NEZ044-045-051>053-067-260100-
OMAHA AREA

CITY           SKY/WX    TMP DP  RH WIND       PRES   REMARKS
OMAHA EPPLEY   PTSUNNY   91  77  63 E8        29.72S HX 104
6HR MIN TEMP:  87; 6HR MAX TEMP:  93;

BLAIR          MOSUNNY   90  75  61 CALM      29.74S HX  99
FREMONT        MOSUNNY   90  76  64 NE7       29.74S HX 101
MILLARD        MOSUNNY   91  76  60 NW5       29.72S HX 102
OFFUTT AFB     MOSUNNY   92  79  65 VRB2      29.72S HX 108
PLATTSMOUTH    SUNNY     92  74  54 NW7       29.73S HX 101
WAHOO          FAIR      90  76  62 CALM      29.74S HX 101
$$



USA.gov is the U.S. government's official web portal to all federal, state and local government web resources and services.